Skip Navigation Links
NOAA logo - Click to go to the NOAA homepage
NOAA's National Weather Service
Alaska Aviation Weather Unit
  NWS logo - Click to go to the NWS homepage
Left Navbar Graphic     01 AKDT = 09 GMT

   
NOAA is celebrating 200 years of science, service, and stewardship. Visit the NOAA 200th celebration Web site to learn more.
USA.gov is the U.S. Government's official Web portal to all Federal, state and local government Web resources and services.
Facebook
NWS on Facebook

Important Change Regarding the AAWU Web Presence

 

Over the last several months, the AAWU has been working to navigate its webpages to a nationally supported server. Security, as well as other needs, have necessitated the change.  We have been given an extension for the site changeover while we diligently work at addressing feedback received. As of July 14, 2017, aawu.arh.noaa.gov will be discontinued. The new AAWU web address is weather.gov/aawu. It is now live and will run in-parallel with the old site until it is discontinued on July 14, 2017. Please continue to send any feedback or questions regarding the new webpages to nws.ar.aawu.webauthors@noaa.gov.  Thank you for your patience during this time of transition.
AAWU Home :: Display TAF Add Bookmark
TAF PAJN 190524Z 1906/2006  10010KT 6SM -SHRA FEW006 BKN035 OVC060
      TEMPO 1908/1912 4SM -SHRA BKN025 OVC060
     FM191200 12014KT P6SM -SHRA BKN025 OVC040
     FM191800 12016G21KT 5SM -SHRA BR SCT015 BKN025 OVC040=

7453
FTAK31 PAJN 190524
TAFAWG
TAF
METAR PAJN 190353Z 09009KT 10SM FEW004 BKN043 OVC055 12/11 A2998=

METAR PAJN 190453Z 10010KT 5SM RA BR FEW003 BKN034 OVC043 11/11
     A2998=

METAR PAJN 190553Z 09007KT 10SM FEW006 BKN033 OVC040 11/11 A2999=

METAR PAJN 190653Z 09007KT 8SM -RA FEW005 BKN034 OVC045 11/11 A2999=

METAR PAJN 190753Z 05004KT 5SM RA BR FEW007 BKN030 OVC043 11/11
     A3001=

METAR PAJN 190853Z 06008KT 10SM FEW007 BKN030 OVC041 11/11 A3001=


NOAA's National Weather Service
Alaska Aviation Weather Unit
6930 Sand Lake Road
Anchorage, AK 99502-1845
Disclaimer
Credits
Glossary
Privacy Policy
About Us
Career Opportunities
Contact AAWU Internet Services Site last modified: April, 17th 2012